sat.trackr.live / text

‹ back to catalog

STARLINK-35071

NORAD 65477 · 2025-195V

PAYLOAD ACTIVE UNKNOWN

§ Identity

Operator
Country
US
Launch date
2025-09-03
Launch site
AFETR
Launch vehicle
Mass (kg)
RCS (m²)

Purposes: comms

External: N2YO · Heavens-Above · Gunter

§ Orbital elements

Epoch: 2026-05-25T04:00:03.998880Z

Period
93.85 min
Inclination
53.1595°
Eccentricity
0.0001289
Mean motion
15.34357326 rev/d
Perigee alt
461.9 km
Apogee alt
463.7 km
Semi-major
6,841.0 km
B*
1.7838e-3
RAAN
262.9874°
Arg perigee
95.2415°
Mean anomaly
210.3022°
Rev number
575

§ Raw data

STARLINK-350711 65477U 25195V   26145.16671295  .00060297  00000+0  17838-2 0  99982 65477  53.1595 262.9874 0001289  95.2415 210.3022 15.34357326  5759

JSON: /api/v1/satellites/65477 · /tle

For live sub-satellite position, see the globe view (requires WebGL).

§ Visibility from observer

Set your observer location to see the next 7 days of passes ≥ 10°. The values pass through the URL so the page stays shareable.

No JS? Fill the form by hand. The geolocation button needs JavaScript.